Wisconsin Dells, Wisconsin, United States (53965)
Lat: 43.63N, Lon: 89.77W
Wx Zone: WIZ057
Local Info
Past Weather Observations for Wednesday, April 27, 2016

NOTE: This archive is for the closest National Weather Service station to Wisconsin Dells. Information may differ from the station used for current weather conditions.

Click here for Long-term Archive

Time Weather Temperature Dewpoint Humidity Pressure Winds Precip Visibility
23:55
Overcast
43°F / 6°C 23°F / -5°C 46% 29.89 in
(1012 mb)
ENE 10.4 mph
(ENE 17 kph)
- 10SM
23:35
Overcast
43°F / 6°C 25°F / -4°C 49% 29.89 in
(1012 mb)
ENE 10.4 mph
(ENE 17 kph)
- 10SM
23:15
Overcast
43°F / 6°C 25°F / -4°C 49% 29.89 in
(1012 mb)
ENE 11.5 mph
(ENE 19 kph)
- 10SM
22:55
Overcast
41°F / 5°C 25°F / -4°C 53% 29.89 in
(1012 mb)
ENE 10.4 mph
(ENE 17 kph)
- 10SM
22:35
Overcast
41°F / 5°C 25°F / -4°C 53% 29.89 in
(1012 mb)
E 9.2 mph
(E 15 kph)
- 10SM
22:15
Overcast
41°F / 5°C 27°F / -3°C 57% 29.89 in
(1012 mb)
E 5.8 mph
(E 9 kph)
- 10SM
21:55
Overcast
Light Rain
39°F / 4°C 28°F / -2°C 65% 29.89 in
(1012 mb)
E 10.4 mph
(E 17 kph)
- 10SM
21:35
Overcast
43°F / 6°C 25°F / -4°C 49% 29.89 in
(1012 mb)
E 16.1 mph
(E 26 kph)
- 10SM
21:15
Overcast
41°F / 5°C 25°F / -4°C 53% 29.89 in
(1012 mb)
E 13.8 mph
(E 22 kph)
- 10SM
20:55
Overcast
41°F / 5°C 25°F / -4°C 53% 29.89 in
(1012 mb)
E 10.4 mph
(E 17 kph)
- 10SM
20:35
Overcast
41°F / 5°C 27°F / -3°C 57% 29.89 in
(1012 mb)
ENE 10.4 mph
(ENE 17 kph)
- 10SM
20:15
Overcast
41°F / 5°C 27°F / -3°C 57% 29.89 in
(1012 mb)
ENE 11.5 mph
(ENE 19 kph)
- 10SM
19:55
Overcast
41°F / 5°C 28°F / -2°C 61% 29.86 in
(1011 mb)
ENE 13.8 mph
(ENE 22 kph)
- 10SM
19:35
Overcast
41°F / 5°C 30°F / -1°C 66% 29.86 in
(1011 mb)
E 12.7 mph
(E 20 kph)
- 10SM
19:15
Overcast
41°F / 5°C 30°F / -1°C 66% 29.86 in
(1011 mb)
ENE 13.8 mph
(ENE 22 kph)
- 10SM
18:55
Overcast
41°F / 5°C 30°F / -1°C 66% 29.86 in
(1011 mb)
E 11.5 mph
(E 19 kph)
- 10SM
18:35
Overcast
41°F / 5°C 32°F / 0°C 70% 29.86 in
(1011 mb)
ENE 16.1 mph
(ENE 26 kph)
- 10SM
18:15
Overcast
41°F / 5°C 34°F / 1°C 76% 29.89 in
(1012 mb)
E 12.7 mph
(E 20 kph)
- 10SM
17:55
Overcast
41°F / 5°C 36°F / 2°C 81% 29.89 in
(1012 mb)
E 11.5 mph
(E 19 kph)
0.06 in
(1.52 mm)
10SM
17:35
Overcast
Rain
41°F / 5°C 37°F / 3°C 87% 29.86 in
(1011 mb)
E 13.8 mph
(E 22 kph)
0.06 in
(1.52 mm)
5SM
17:15
Overcast
Rain
43°F / 6°C 37°F / 3°C 81% 29.89 in
(1012 mb)
NE 9.2 mph
(NE 15 kph)
0.03 in
(0.76 mm)
7SM
16:55
Overcast
Light Rain
43°F / 6°C 37°F / 3°C 81% 29.92 in
(1013 mb)
E 5.8 mph
(E 9 kph)
0.05 in
(1.27 mm)
10SM
16:35
Overcast
Light Rain
45°F / 7°C 36°F / 2°C 71% 29.92 in
(1013 mb)
E 8.1 mph
(E 13 kph)
0.03 in
(0.76 mm)
10SM
16:15
Overcast
Light Rain
45°F / 7°C 34°F / 1°C 66% 29.92 in
(1013 mb)
E 10.4 mph
(E 17 kph)
0.02 in
(0.51 mm)
10SM
15:55
Overcast
Heavy Rain
46°F / 8°C 32°F / 0°C 57% 29.89 in
(1012 mb)
E 16.1 mph
(E 26 kph)
0.01 in
(0.25 mm)
10SM
15:35
Overcast
Light Rain
48°F / 9°C 30°F / -1°C 50% 29.92 in
(1013 mb)
E 11.5 mph
(E 19 kph)
- 10SM
15:15
Overcast
Drizzle
50°F / 10°C 27°F / -3°C 40% 29.92 in
(1013 mb)
E 15 mph
(E 24 kph)
- 10SM
14:55
Overcast
Light Rain
52°F / 11°C 21°F / -6°C 30% 29.92 in
(1013 mb)
E 18.4 mph
(E 30 kph)
- 10SM
14:35
Overcast
52°F / 11°C 21°F / -6°C 30% 29.89 in
(1012 mb)
E 13.8 mph
(E 22 kph)
- 10SM
14:15
Overcast
52°F / 11°C 21°F / -6°C 30% 29.86 in
(1011 mb)
E 20.7 mph
(E 33 kph)
- 10SM
13:55
Overcast
54°F / 12°C 21°F / -6°C 28% 29.89 in
(1012 mb)
E 20.7 mph
(E 33 kph)
- 10SM
13:35
Overcast
54°F / 12°C 19°F / -7°C 26% 29.89 in
(1012 mb)
E 20.7 mph
(E 33 kph)
- 10SM
13:15
Mostly Cloudy
54°F / 12°C 21°F / -6°C 28% 29.92 in
(1013 mb)
E 20.7 mph
(E 33 kph)
- 10SM
12:55
Partly Cloudy
54°F / 12°C 21°F / -6°C 28% 29.92 in
(1013 mb)
E 18.4 mph
(E 30 kph)
- 10SM
12:35
Clear
54°F / 12°C 21°F / -6°C 28% 29.92 in
(1013 mb)
E 19.6 mph
(E 32 kph)
- 10SM
12:15
Clear
54°F / 12°C 21°F / -6°C 28% 29.92 in
(1013 mb)
E 21.9 mph
(E 35 kph)
- 10SM
11:55
Clear
54°F / 12°C 21°F / -6°C 28% 29.92 in
(1013 mb)
E 16.1 mph
(E 26 kph)
- 10SM
11:35
Clear
52°F / 11°C 21°F / -6°C 30% 29.92 in
(1013 mb)
E 17.3 mph
(E 28 kph)
- 10SM
11:15
Clear
52°F / 11°C 21°F / -6°C 30% 29.92 in
(1013 mb)
E 19.6 mph
(E 32 kph)
- 10SM
10:55
Clear
52°F / 11°C 21°F / -6°C 30% 29.92 in
(1013 mb)
E 26.5 mph
(E 43 kph)
- 10SM
10:35
Clear
52°F / 11°C 23°F / -5°C 32% 29.92 in
(1013 mb)
ENE 20.7 mph
(ENE 33 kph)
- 10SM
10:15
Clear
52°F / 11°C 25°F / -4°C 35% 29.92 in
(1013 mb)
ENE 19.6 mph
(ENE 32 kph)
- 10SM
09:55
Clear
50°F / 10°C 25°F / -4°C 37% 29.92 in
(1013 mb)
ENE 17.3 mph
(ENE 28 kph)
- 10SM
09:35
Clear
48°F / 9°C 25°F / -4°C 40% 29.92 in
(1013 mb)
E 16.1 mph
(E 26 kph)
- 10SM
09:15
Clear
48°F / 9°C 23°F / -5°C 37% 29.92 in
(1013 mb)
E 19.6 mph
(E 32 kph)
- 10SM
08:55
Clear
48°F / 9°C 23°F / -5°C 37% 29.95 in
(1014 mb)
E 23 mph
(E 37 kph)
- 10SM
08:35
Clear
46°F / 8°C 25°F / -4°C 43% 29.95 in
(1014 mb)
ENE 18.4 mph
(ENE 30 kph)
- 10SM
08:15
Clear
45°F / 7°C 25°F / -4°C 46% 29.95 in
(1014 mb)
E 18.4 mph
(E 30 kph)
- 10SM
07:55
Clear
45°F / 7°C 27°F / -3°C 49% 29.95 in
(1014 mb)
E 20.7 mph
(E 33 kph)
- 10SM
07:35
Clear
43°F / 6°C 27°F / -3°C 53% 29.95 in
(1014 mb)
ENE 16.1 mph
(ENE 26 kph)
- 10SM
07:15
Clear
41°F / 5°C 27°F / -3°C 57% 29.95 in
(1014 mb)
ENE 16.1 mph
(ENE 26 kph)
- 10SM
06:55
Clear
39°F / 4°C 27°F / -3°C 61% 29.95 in
(1014 mb)
ENE 11.5 mph
(ENE 19 kph)
- 10SM
06:35
Clear
39°F / 4°C 27°F / -3°C 61% 29.98 in
(1015 mb)
ENE 11.5 mph
(ENE 19 kph)
- 10SM
06:15
Clear
37°F / 3°C 25°F / -4°C 60% 29.98 in
(1015 mb)
ENE 15 mph
(ENE 24 kph)
- 10SM
05:55
Clear
37°F / 3°C 25°F / -4°C 60% 29.98 in
(1015 mb)
E 10.4 mph
(E 17 kph)
- 10SM
05:35
Clear
36°F / 2°C 25°F / -4°C 65% 29.98 in
(1015 mb)
E 10.4 mph
(E 17 kph)
- 10SM
05:15
Clear
36°F / 2°C 25°F / -4°C 65% 29.98 in
(1015 mb)
E 10.4 mph
(E 17 kph)
- 10SM
04:55
Clear
36°F / 2°C 25°F / -4°C 65% 29.98 in
(1015 mb)
E 10.4 mph
(E 17 kph)
- 10SM
04:35
Clear
36°F / 2°C 25°F / -4°C 65% 29.95 in
(1014 mb)
ENE 13.8 mph
(ENE 22 kph)
- 10SM
04:15
Clear
36°F / 2°C 25°F / -4°C 65% 29.98 in
(1015 mb)
ENE 11.5 mph
(ENE 19 kph)
- 10SM
03:55
Clear
37°F / 3°C 25°F / -4°C 60% 29.98 in
(1015 mb)
ENE 8.1 mph
(ENE 13 kph)
- 10SM
03:35
Clear
37°F / 3°C 25°F / -4°C 60% 29.98 in
(1015 mb)
ENE 12.7 mph
(ENE 20 kph)
- 10SM
03:15
Clear
37°F / 3°C 27°F / -3°C 65% 29.98 in
(1015 mb)
ENE 12.7 mph
(ENE 20 kph)
- 10SM
02:55
Clear
37°F / 3°C 27°F / -3°C 65% 30.01 in
(1016 mb)
ENE 13.8 mph
(ENE 22 kph)
- 10SM
02:35
Clear
37°F / 3°C 28°F / -2°C 70% 30.01 in
(1016 mb)
E 11.5 mph
(E 19 kph)
- 10SM
02:15
Clear
37°F / 3°C 30°F / -1°C 75% 30.01 in
(1016 mb)
E 10.4 mph
(E 17 kph)
- 10SM
01:55
Clear
37°F / 3°C 32°F / 0°C 81% 29.98 in
(1015 mb)
E 12.7 mph
(E 20 kph)
- 10SM
01:35
Partly Cloudy
39°F / 4°C 32°F / 0°C 75% 29.98 in
(1015 mb)
ENE 9.2 mph
(ENE 15 kph)
- 10SM
01:15
Overcast
39°F / 4°C 32°F / 0°C 75% 29.98 in
(1015 mb)
E 9.2 mph
(E 15 kph)
- 10SM
00:55
Overcast
39°F / 4°C 32°F / 0°C 75% 29.98 in
(1015 mb)
E 9.2 mph
(E 15 kph)
- 10SM
00:35
Overcast
39°F / 4°C 32°F / 0°C 75% 29.98 in
(1015 mb)
ENE 5.8 mph
(ENE 9 kph)
- 10SM
00:15
Partly Cloudy
39°F / 4°C 32°F / 0°C 75% 29.98 in
(1015 mb)
ENE 8.1 mph
(ENE 13 kph)
- 10SM
Time Weather Temperature Dewpoint Humidity Pressure Winds Precip Visibility


Weather for websites

WeatherForYou.com, LLC is not responsible for any damages or problems caused by this service. Current weather conditions are obtained from the closest station including government and personal stations which may have varying degrees of accuracy. Weather forecasts are derived from the NOAA NDFD. Like all things, this site belongs to Jesus Christ... He just trusts us to maintain it. If you have any questions or comments email webmaster@weatherforyou.com

Copyright © 2016, WeatherForYou.com LLC. All rights reserved.